Albogasio, Italy

8:09 AM CEST on October 17, 2017 (GMT +0200)
Albogasio

Weather History for 06770 - March, 2014

Change the Weather History Date:

Friday, March 21, 2014

  Actual Average Record
Temperature  
Mean Temperature 54 °F -  
Max Temperature 63 °F 56 °F - ()
Min Temperature 44 °F 43 °F - ()
Degree Days  
Heating Degree Days 12    
Growing Degree Days 4 (Base 50)    
Moisture  
Dew Point 45 °F    
Average Humidity 70    
Maximum Humidity 100    
Minimum Humidity 41    
Precipitation  
Precipitation 0.01 in 0.19 in - ()
Sea Level Pressure  
Sea Level Pressure 30.11 in    
Wind  
Wind Speed 2 mph ()    
Max Wind Speed 17 mph    
Max Gust Speed -    
Visibility 4.6 miles    
Events      
T = Trace of Precipitation, MM = Missing Value Source: Averaged Metar Reports

Daily Weather History Graph

Daily Weather History Graph

Search for Another Location

Airport or City:

Trip Planner

Search our weather history database for the weather conditions in past years. The results will help you decide how hot, cold, wet, or windy it might be!

Date:

Astronomy

Mar. 21, 2014 Rise Set
Actual Time 6:25 AM CET 6:37 PM CET
Civil Twilight 5:55 AM CET 7:07 PM CET
Nautical Twilight 5:20 AM CET 7:42 PM CET
Astronomical Twilight 4:44 AM CET 8:18 PM CET
Moon 11:56 PM CET (3/21) 8:50 AM CET (3/21)
Length of Visible Light 13h 11m
Length of Day
12h 12m
Waning Gibbous, 77% of the Moon is Illuminated
Mar 21
Waning Gibbous
Mar 24
Last Quarter
Mar 30
New
Apr 7
First Quarter
Apr 15
Full

Hourly Weather History & Observations

Time (CET) Temp. Windchill Dew Point Humidity Pressure Visibility Wind Dir Wind Speed Gust Speed Precip Events Conditions
12:00 AM 52 °F - 46 °F 73% 30.25 in - South 2.3 mph - -  
12:20 AM 46.4 °F - 44.6 °F 93% 30.21 in - North 1.2 mph - N/A   Mist
12:50 AM 44.6 °F - 41.0 °F 87% 30.21 in 3.1 mi North 2.3 mph - N/A   Unknown
1:00 AM 51 °F - 47 °F 80% 30.23 in 9 mi Calm Calm - -   Mostly Cloudy
1:20 AM 46.4 °F - 42.8 °F 87% 30.21 in 1.4 mi Variable 1.2 mph - N/A   Mist
1:50 AM 44.6 °F - 42.8 °F 93% 30.21 in 3.1 mi Variable 1.2 mph - N/A   Unknown
2:00 AM 51 °F - 43 °F 65% 30.23 in - North 1.2 mph - -  
2:20 AM 46.4 °F - 42.8 °F 87% 30.21 in - Variable 1.2 mph - N/A   Mist
2:50 AM 46.4 °F - 42.8 °F 87% 30.18 in - Calm Calm - N/A   Mist
3:00 AM 50 °F - 45 °F 76% 30.22 in - NW 1.2 mph - -  
3:20 AM 44.6 °F - 42.8 °F 93% 30.18 in - Variable 1.2 mph - N/A   Mist
3:50 AM 42.8 °F 41.1 °F 41.0 °F 93% 30.18 in - Variable 3.5 mph - N/A   Mist
4:00 AM 49 °F - 46 °F 84% 30.21 in 9 mi Calm Calm - -   Mostly Cloudy
4:20 AM 41.0 °F - 39.2 °F 93% 30.18 in - North 2.3 mph - N/A   Mist
4:50 AM 44.6 °F 43.1 °F 42.8 °F 93% 30.18 in - North 3.5 mph - N/A   Mist
5:00 AM 49 °F - 42 °F 71% 30.19 in - North 1.2 mph - -  
5:20 AM 44.6 °F - 42.8 °F 93% 30.15 in - Variable 1.2 mph - N/A   Mist
5:50 AM 42.8 °F - 41.0 °F 93% 30.15 in 1.4 mi NE 2.3 mph - N/A   Mist
6:00 AM 48 °F - 43 °F 75% 30.19 in - North 1.2 mph - -  
6:20 AM 42.8 °F 40.1 °F 41.0 °F 93% 30.15 in 3.7 mi North 4.6 mph - N/A   Partly Cloudy
6:50 AM 42.8 °F - 42.8 °F 100% 30.15 in 3.7 mi Variable 1.2 mph - N/A   Partly Cloudy
7:00 AM 49 °F - 44 °F 75% 30.18 in 16 mi Calm Calm - -  
7:20 AM 44.6 °F - 42.8 °F 93% 30.15 in 3.7 mi Variable 1.2 mph - N/A   Partly Cloudy
7:50 AM 44.6 °F - 42.8 °F 93% 30.15 in 3.1 mi Variable 1.2 mph - N/A   Partly Cloudy
8:00 AM 49 °F - 44 °F 76% 30.18 in - NE 1.2 mph - -  
8:20 AM 48.2 °F - 44.6 °F 87% 30.15 in 3.1 mi Variable 1.2 mph - N/A   Partly Cloudy
8:50 AM 50.0 °F - 44.6 °F 82% 30.15 in 3.1 mi Variable 2.3 mph - N/A   Partly Cloudy
9:00 AM 50 °F - 43 °F 70% 30.17 in - SSE 1.2 mph - -  
9:20 AM 53.6 °F - 44.6 °F 72% 30.15 in 3.1 mi Variable 1.2 mph - N/A   Partly Cloudy
9:50 AM 57.2 °F - 42.8 °F 59% 30.15 in 4.3 mi Variable 2.3 mph - N/A   Unknown
10:00 AM 50 °F - 44 °F 75% 30.17 in - South 1.2 mph - -  
10:20 AM 55.4 °F - 44.6 °F 67% 30.15 in 4.3 mi South 3.5 mph - N/A   Unknown
10:50 AM 60.8 °F - 44.6 °F 55% 30.12 in 4.3 mi South 3.5 mph - N/A   Scattered Clouds
11:00 AM 53 °F - 43 °F 60% 30.15 in - South 1.2 mph - -  
11:20 AM 60.8 °F - 44.6 °F 55% 30.12 in 4.3 mi South 3.5 mph - N/A   Scattered Clouds
11:50 AM 62.6 °F - 42.8 °F 48% 30.12 in 4.3 mi South 3.5 mph - N/A   Scattered Clouds
12:00 PM 60 °F - 45 °F 46% 30.12 in - SSE 3.5 mph - -  
12:20 PM 64.4 °F - 42.8 °F 45% 30.09 in 4.3 mi South 3.5 mph - N/A   Scattered Clouds
12:50 PM 66.2 °F - 44.6 °F 46% 30.09 in 3.1 mi South 5.8 mph - N/A   Haze
1:00 PM 63 °F - 45 °F 41% 30.09 in 16 mi SE 3.5 mph - -  
1:20 PM 62.6 °F - 44.6 °F 52% 30.09 in 3.1 mi South 5.8 mph - N/A   Haze
1:50 PM 64.4 °F - 44.6 °F 49% 30.06 in 3.1 mi South 4.6 mph - N/A   Haze
2:00 PM 60 °F - 48 °F 55% 30.07 in - SSW 4.6 mph - -  
2:20 PM 64.4 °F - 44.6 °F 49% 30.06 in 4.3 mi South 4.6 mph - N/A   Mostly Cloudy
2:50 PM 66.2 °F - 44.6 °F 46% 30.04 in 4.3 mi SSW 5.8 mph - N/A   Mostly Cloudy
3:00 PM 62 °F - 47 °F 46% 30.04 in - South 5.8 mph - -  
3:20 PM 64.4 °F - 46.4 °F 52% 30.04 in 4.3 mi South 5.8 mph - N/A   Mostly Cloudy
3:50 PM 64.4 °F - 46.4 °F 52% 30.04 in 4.3 mi SSW 5.8 mph - N/A   Mostly Cloudy
4:00 PM 60 °F - 46 °F 50% 30.02 in - South 9.2 mph - -  
4:20 PM 62.6 °F - 46.4 °F 55% 30.01 in 4.3 mi South 6.9 mph - N/A   Mostly Cloudy
4:50 PM 62.6 °F - 46.4 °F 55% 30.01 in 4.3 mi South 6.9 mph - N/A   Mostly Cloudy
5:00 PM 60 °F - 46 °F 49% 30.01 in - South 9.2 mph - -  
5:20 PM 60.8 °F - 46.4 °F 59% 30.01 in 4.3 mi South 6.9 mph - N/A   Mostly Cloudy
5:50 PM 62.6 °F - 44.6 °F 52% 30.01 in 4.3 mi Variable 3.5 mph - N/A   Mostly Cloudy
6:00 PM 60 °F - 44 °F 45% 30.02 in - South 2.3 mph - -  
6:20 PM 59.0 °F - 46.4 °F 63% 30.01 in 4.3 mi SSE 4.6 mph - N/A   Scattered Clouds
6:50 PM 57.2 °F - 46.4 °F 67% 30.04 in 4.3 mi South 4.6 mph - N/A   Scattered Clouds
7:00 PM 59 °F - 47 °F 53% 30.03 in 12 mi SW 8.1 mph - -   Mostly Cloudy
7:20 PM 57.2 °F - 46.4 °F 67% 30.04 in 3.7 mi SSE 4.6 mph - N/A   Mostly Cloudy
7:50 PM 57.2 °F - 46.4 °F 67% 30.04 in 3.7 mi SSE 3.5 mph - N/A   Mostly Cloudy
8:00 PM 57 °F - 47 °F 62% 30.06 in - South 3.5 mph - -  
8:20 PM 53.6 °F - 46.4 °F 77% 30.04 in 3.1 mi South 3.5 mph - N/A   Mostly Cloudy
8:50 PM 53.6 °F - 46.4 °F 77% 30.04 in 3.1 mi North 2.3 mph - N/A   Scattered Clouds
9:00 PM 58 °F - 47 °F 57% 30.05 in - NW 1.2 mph - -  
9:20 PM 51.8 °F - 46.4 °F 82% 30.04 in 3.7 mi Variable 1.2 mph - N/A   Mostly Cloudy
9:50 PM 51.8 °F - 46.4 °F 82% 30.04 in 4.3 mi Variable 2.3 mph - N/A   Mostly Cloudy
10:00 PM 56 °F - 45 °F 56% 30.05 in - SSW 17.3 mph - -  
10:20 PM 53.6 °F - 46.4 °F 77% 30.04 in 3.7 mi Variable 2.3 mph - N/A   Mostly Cloudy
10:50 PM 53.6 °F - 46.4 °F 77% 30.04 in 3.1 mi SSE 3.5 mph - N/A   Scattered Clouds
11:00 PM 54 °F - 47 °F 69% 30.06 in - South 3.5 mph - -  
11:20 PM 53.6 °F - 46.4 °F 77% 30.04 in 3.7 mi Variable 1.2 mph - N/A   Mostly Cloudy
11:50 PM 53.6 °F - 46.4 °F 77% 30.04 in 3.1 mi West 2.3 mph - N/A   Scattered Clouds